Погода в Фоминках

Россия / Владимирская область     55°57′51″N   42°22′04″E
темп.,
°C
ветер,
м/с
пор.,
м/с
влажн.,
%
обл.,
%
осадки,
мм/ч
давл.,
гПа
погр.,
м
5 августа, чт
чт500:00+16ссз276012 0.0 1016169
03:00+13ссз226890 0.0 101725
06:00+15ссв1260100 0.0 101881
09:00+18св125095 0.0 1018218
12:00+24вюв123431 0.0 10181426
15:00+25в023479 0.0 10172356
18:00+21вюв1250100 0.0 101626
21:00+18в2554100 0.0 101697
6 августа, пт
пт600:00+17всв1159100 0.0 101624
03:00+15всв387048 0.2 1016170
06:00+16вюв31071100 0.1 1015329
09:00+19ююв3767100 0.4 1015414
12:00+19юв1380100 0.6 1015256
15:00+21юв3671100 0.8 1015704
18:00+17вюв2496100 1.9 1015114
21:00+16всв31094100 2.6 1014259
7 августа, сб
сб700:00+16в41291100 0.1 1013390
03:00+16в499383 0.2 1013233
06:00+16юв3991100 0.3 1013216
09:00+20ююв377875 1.1 1013406
12:00+19юв267853 0.6 1013193
15:00+29ю463392 0.6 10121291
18:00+27ююв484291 0.0 1012394
21:00+22ююв4145699 0.0 1013383
8 августа, вс
вс800:00+23ююв31051100 0.0 1013224
03:00+21ююв3954100 0.0 1014210
06:00+19ююв3961100 0.0 1014203
09:00+24ююв364593 0.0 1014362
12:00+29ю3430100 0.1 10141202
15:00+30юз233096 0.1 10141635
18:00+27з365086 0.0 1014285
21:00+22сз2275100 0.0 101542
9 августа, пн
пн900:00+18з1190100 0.6 101713
03:00+18ссз2290100 1.1 101735
06:00+17зсз228998 0.0 101861
09:00+22зсз2362100 0.0 1018489
12:00+27з244299 0.0 10181395
15:00+28з3439100 0.0 10171950
18:00+26сз2449100 0.0 1017266
21:00+21с2460100 0.0 101861